Lapse_Rate
5.0 4.1 1.8 1.9 2.1 2.0 2.0 1.8 1.8 1.9 2.0 2.1 2.4 2.7 2.8 2.8 2.6 2.4 2.8 3.3 3.8 4.5 4.7 4.6 4.5 4.7 4.8 4.4 4.1 4.0 4.1 4.3 4.3 4.7 4.8 5.2 5.4 5.2 4.8 4.7 5.3 6.6 5.3
5.1 3.9 1.5 1.8 1.9 1.8 1.6 1.7 1.6 1.7 1.5 1.6 1.8 2.3 2.6 2.4 2.3 2.3 2.6 3.2 3.7 4.1 4.1 4.2 4.5 4.6 4.3 3.8 3.5 3.5 3.7 4.2 4.5 4.6 5.1 5.3 5.5 5.2 4.9 4.7 5.7 5.5 5.1
4.6 3.7 2.8 1.6 1.7 1.8 1.6 1.7 1.8 1.7 1.6 1.7 1.8 2.1 2.2 2.3 2.3 2.3 2.7 2.9 3.2 3.6 3.7 3.6 3.7 3.8 3.6 3.1 3.0 3.2 3.6 4.0 4.3 4.3 5.0 8.5 6.5 4.9 4.8 4.5 4.7 4.7 4.8
3.8 3.5 3.4 1.5 1.7 1.8 1.9 1.8 2.0 2.2 2.1 2.1 2.1 2.2 2.3 2.3 2.2 2.2 2.3 2.5 2.9 3.3 3.7 3.9 4.0 3.6 3.0 2.7 2.7 3.1 3.2 3.6 3.8 4.1 6.8 6.9 6.4 4.5 4.8 4.7 4.9 5.0 4.9
3.5 3.8 2.9 1.6 1.9 2.0 2.0 2.3 2.3 2.2 2.2 2.3 2.4 2.5 2.5 2.5 2.5 2.5 2.5 2.5 2.8 3.2 3.6 3.8 3.8 3.2 2.8 2.8 2.6 2.7 3.0 3.1 3.4 5.0 6.1 6.1 6.7 4.9 4.7 4.8 4.8 4.9 5.2
3.6 3.8 1.9 1.8 2.0 2.1 2.2 2.3 2.3 2.4 2.5 2.6 2.7 2.7 2.8 2.9 2.9 2.9 2.8 2.8 2.9 3.2 3.5 3.6 3.2 2.9 2.8 2.8 2.7 2.6 2.8 3.2 3.7 6.3 6.1 4.7 6.2 5.1 4.8 4.5 4.8 4.8 4.7
3.1 3.2 3.0 1.9 2.1 2.3 2.5 2.6 2.4 2.4 2.5 2.7 3.0 3.1 3.2 3.3 3.3 3.3 3.2 3.2 3.3 3.4 3.5 3.4 2.9 2.7 2.7 3.1 3.1 2.9 3.0 3.4 6.2 6.1 6.2 5.8 5.6 5.1 4.9 4.3 4.2 4.5 4.8
3.1 2.8 3.0 2.2 2.3 2.4 2.5 2.6 2.6 2.7 2.7 3.0 3.2 3.4 3.6 3.7 3.7 3.6 3.4 3.3 3.3 3.4 3.6 3.6 3.5 3.2 3.0 3.1 3.3 3.3 3.3 3.2 4.6 6.1 5.9 6.1 5.1 5.0 5.1 4.7 4.3 4.3 4.6
2.8 2.8 2.9 3.2 2.7 2.4 2.6 2.7 2.9 3.0 3.1 3.2 3.3 3.5 3.7 3.7 3.8 3.7 3.6 3.6 3.6 3.6 3.6 3.7 3.7 3.6 3.4 3.0 3.6 3.8 3.7 3.6 5.9 6.4 6.1 6.3 4.1 4.7 5.0 4.8 4.5 4.4 4.4
2.6 2.7 2.5 2.5 2.9 3.0 2.5 1.7 2.3 2.5 2.8 3.0 3.1 3.2 3.2 3.4 3.5 3.7 3.8 3.9 3.8 3.8 3.7 3.8 3.8 3.9 3.9 3.5 3.3 4.1 4.0 3.9 6.0 6.7 6.5 6.8 4.4 4.8 5.2 4.7 4.6 4.4 4.5
2.3 2.6 2.4 2.4 2.3 1.9 1.7 1.7 1.7 1.9 2.1 2.3 2.5 2.7 2.8 3.0 3.5 4.1 3.9 3.6 3.7 3.9 3.9 3.9 3.9 4.0 4.1 4.1 3.7 3.5 4.0 5.9 6.2 6.2 6.7 5.5 4.2 5.1 5.6 4.5 4.8 4.7 4.5
2.4 1.2 1.4 1.8 1.7 1.7 2.2 2.4 2.4 2.8 3.4 3.2 2.8 2.7 2.7 3.4 4.0 3.6 3.5 3.6 3.6 3.7 3.9 4.0 4.0 4.1 4.1 6.2 6.4 4.4 5.2 5.5 5.6 5.9 6.2 4.4 4.2 5.3 5.8 5.3 4.7 4.9 4.7
2.1 2.3 1.9 2.4 1.7 1.8 1.7 1.6 2.0 2.9 2.2 1.5 2.1 2.7 2.7 3.0 3.2 2.7 4.1 4.0 3.6 3.5 4.2 4.7 5.9 6.0 5.9 5.2 5.1 4.8 6.1 5.6 5.7 5.8 5.6 3.3 3.7 5.0 6.1 5.7 4.6 4.4 4.2
2.5 1.9 2.3 1.0 0.7 0.3 0.4 0.1 0.0 -0.0 -0.1 0.4 1.2 2.1 3.5 3.5 3.3 3.1 3.7 3.3 3.9 3.7 3.8 3.8 3.9 4.2 5.1 5.2 5.0 5.3 5.1 6.0 6.5 6.2 6.0 3.2 3.0 3.8 5.4 6.1 5.2 4.8 4.3
2.3 1.4 1.4 1.7 2.0 1.4 1.7 1.2 0.8 0.9 1.3 1.2 1.1 1.7 2.2 2.4 2.3 2.1 2.0 2.4 2.0 2.0 2.3 3.1 3.7 4.3 5.1 5.1 4.9 4.7 4.8 4.4 5.7 5.9 4.9 4.2 3.5 3.9 4.4 5.6 5.9 5.4 4.8
3.0 2.2 1.7 2.0 1.9 2.1 2.1 1.3 1.3 0.3 0.3 0.5 0.8 1.4 1.7 2.2 2.3 2.1 1.9 2.1 2.0 2.2 1.9 2.4 3.4 3.7 3.6 4.8 5.6 4.7 4.8 4.8 4.2 4.4 4.4 4.7 3.5 3.7 3.9 4.9 5.8 5.9 5.3
3.0 2.7 2.4 2.2 2.2 2.6 2.5 2.9 3.1 2.6 1.5 1.2 1.2 1.2 1.6 1.4 1.3 1.5 2.0 2.1 1.7 1.9 2.0 2.5 3.9 4.4 4.5 3.1 4.3 4.8 4.4 4.5 4.7 3.9 3.9 5.4 5.3 3.2 4.0 4.5 5.0 6.0 5.8
3.9 3.2 2.0 2.5 2.7 2.2 2.1 2.6 3.0 2.6 2.4 2.0 1.8 1.5 0.8 0.8 0.7 1.0 1.7 1.6 1.2 2.0 2.3 3.1 3.6 4.0 4.7 5.0 4.4 4.4 3.7 4.5 4.9 5.0 4.6 4.8 5.1 6.0 4.4 3.7 4.5 5.0 5.9
4.1 3.1 2.9 3.0 2.8 2.2 1.7 1.8 1.7 1.2 1.5 1.0 1.2 1.1 0.5 0.5 0.5 0.9 1.0 0.7 0.6 1.5 2.1 2.6 3.3 3.2 4.1 4.8 5.0 4.9 3.7 3.3 6.0 4.8 4.8 5.1 5.4 5.3 5.7 5.6 3.8 4.3 5.0
4.4 3.9 3.7 3.6 2.6 2.0 2.0 1.8 1.9 1.8 1.0 1.1 0.9 0.6 -0.0 0.1 0.3 0.5 1.0 0.8 0.9 2.0 2.6 3.2 3.6 4.1 4.2 4.9 5.3 5.5 5.1 5.2 5.4 5.6 5.3 5.3 5.0 5.2 5.4 5.6 6.1 5.6 4.5
4.3 4.5 4.3 3.9 3.1 3.7 3.4 3.1 2.6 2.8 2.2 1.9 1.1 0.4 0.3 0.2 0.3 0.7 1.5 1.8 1.8 2.6 3.0 3.6 4.1 4.5 5.4 5.6 5.7 6.7 5.8 5.7 5.4 5.6 6.0 5.7 6.0 6.0 5.6 6.4 5.1 5.9 6.9
3.9 3.9 3.9 3.9 3.7 3.4 3.0 1.9 2.5 1.8 2.1 1.7 1.4 1.2 0.4 0.2 0.3 1.0 1.3 2.1 2.5 3.0 3.6 3.9 4.2 4.3 5.0 6.2 8.3 8.6 7.9 8.1 6.6 7.1 7.3 7.3 7.3 7.0 5.9 4.1 5.1 5.8 6.0
3.8 3.7 4.0 3.8 3.6 3.3 3.1 3.3 4.0 3.6 2.8 3.2 2.1 1.9 1.0 0.7 1.1 1.7 2.4 2.6 3.4 4.0 4.2 4.2 4.3 4.9 6.1 5.5 7.5 8.1 8.0 7.6 8.4 7.6 6.4 7.3 7.2 7.2 7.2 6.5 4.7 4.4 3.3
3.4 3.3 3.3 3.1 3.6 3.6 3.5 4.0 3.5 3.7 3.3 3.3 3.4 3.1 3.1 2.8 3.0 3.5 3.6 3.5 3.5 4.9 4.9 4.8 5.3 6.2 5.9 5.6 7.2 7.8 7.7 8.5 8.0 7.9 8.9 7.4 7.0 6.8 6.9 6.9 6.3 5.9 5.5
3.5 3.3 2.9 1.8 0.3 0.5 2.2 4.7 4.8 4.0 3.7 3.4 3.2 2.9 3.6 4.2 4.5 4.9 5.4 5.5 5.7 5.7 5.6 5.4 5.5 6.0 6.6 6.8 7.2 7.2 6.7 6.9 7.1 8.3 7.9 8.4 7.1 7.5 9.3 8.2 6.6 6.5 5.6
4.6 3.2 2.8 3.1 2.6 1.5 1.6 2.2 3.2 2.5 2.5 3.3 4.1 3.9 4.2 4.7 5.5 5.4 5.8 5.7 5.2 5.1 5.0 5.2 5.1 5.3 5.5 5.7 6.0 6.4 7.0 8.1 8.5 8.5 8.2 8.4 8.5 8.6 7.1 7.3 9.1 8.2 7.0
Wind_Speed
7 17 18 12 10 8 10 16 16 17 18 19 19 19 19 18 16 16 15 14 13 12 12 12 12 11 11 12 11 12 13 14 16 16 16 16 15 14 14 14 14 15 14
12 17 20 14 11 10 12 14 15 16 18 19 19 18 18 17 17 16 16 14 13 12 11 11 10 10 10 11 11 12 12 13 14 16 15 15 13 13 13 12 10 15 14
12 16 17 17 13 12 15 14 14 15 15 15 17 17 17 17 16 16 15 14 13 12 11 10 10 10 10 10 12 12 12 12 12 13 12 12 12 12 11 12 12 13 15
15 19 15 15 13 14 15 16 15 14 15 15 15 16 15 15 16 16 16 15 12 10 9 9 9 10 10 11 12 12 12 12 11 13 9 9 11 12 11 11 12 12 13
12 18 16 16 13 12 15 14 14 14 13 13 13 12 13 14 13 13 14 14 13 11 11 10 9 10 11 11 12 13 13 12 11 9 10 7 8 11 11 11 12 12 11
11 14 14 12 12 12 12 12 14 13 12 12 12 11 11 11 11 12 13 12 11 10 9 8 9 11 11 10 11 13 13 12 11 8 8 9 6 10 10 10 10 11 11
9 10 12 12 11 10 11 10 11 11 11 10 8 9 9 9 10 10 10 10 8 8 8 7 7 9 11 10 10 12 13 11 8 7 7 8 8 10 10 10 11 12 12
11 12 12 11 12 12 12 10 10 10 9 7 6 7 7 8 8 9 9 8 8 7 6 6 5 6 9 10 11 12 14 12 7 7 8 8 9 11 10 10 11 13 13
10 11 12 11 11 11 10 9 8 8 7 6 6 5 5 5 5 5 6 6 6 6 6 7 7 6 7 8 10 11 13 14 10 7 10 10 13 13 12 12 12 13 14
9 10 11 12 13 12 12 12 11 10 8 6 5 4 3 2 1 3 4 5 6 6 7 8 8 9 9 7 9 11 12 13 13 9 9 10 13 14 13 13 14 14 15
6 5 8 10 9 10 11 10 11 11 11 9 7 5 4 3 1 2 3 6 7 8 9 9 10 11 11 11 11 12 12 13 14 13 12 11 16 17 15 16 16 15 15
4 6 6 6 6 7 6 8 10 10 8 7 7 7 7 6 6 5 4 6 6 7 9 11 12 12 13 12 11 12 13 14 15 15 14 13 18 19 18 17 17 19 18
5 5 6 6 7 6 5 6 6 6 6 7 5 6 7 5 3 8 4 4 3 3 5 8 11 12 13 13 13 12 14 14 15 16 17 16 21 22 22 21 23 22 21
7 8 8 8 8 10 9 9 10 10 10 10 11 8 6 6 4 7 4 3 2 2 5 7 7 10 13 15 16 16 16 17 15 15 17 20 25 25 27 25 25 24 23
10 9 9 9 9 10 11 12 13 12 12 13 14 16 12 9 7 9 8 7 7 6 7 7 6 10 12 14 15 15 15 18 20 16 14 21 27 28 29 29 27 27 26
9 10 9 11 11 13 11 13 11 13 13 14 14 13 15 12 10 10 8 7 6 7 6 6 5 5 5 10 10 14 16 17 17 17 19 19 27 30 30 31 30 30 29
10 11 11 11 13 13 13 14 13 13 13 12 12 15 15 13 12 9 7 7 9 9 7 6 7 7 4 4 5 8 13 17 17 19 20 21 20 29 32 31 33 31 32
12 11 11 10 11 12 12 12 12 12 13 12 12 13 14 13 12 9 7 6 8 6 6 5 4 4 4 4 4 5 3 9 13 18 19 19 19 20 23 31 33 34 34
12 12 12 11 12 11 12 11 12 11 11 10 10 11 13 12 11 8 6 6 8 6 5 5 5 5 5 6 6 6 5 5 8 10 12 17 21 19 19 21 31 34 35
9 10 10 8 10 8 8 8 7 7 9 10 11 11 13 11 11 9 7 8 9 5 5 5 5 4 5 5 7 8 7 7 8 7 8 14 15 19 20 21 21 26 35
8 9 8 8 6 4 3 2 4 2 4 5 9 12 12 11 11 8 5 6 8 5 6 6 5 6 4 5 6 5 7 9 6 3 4 3 5 12 20 23 22 23 22
7 7 7 7 6 5 3 2 1 2 1 2 8 10 12 12 12 9 7 5 8 6 7 5 4 3 4 4 4 6 4 3 1 5 7 3 8 8 7 9 16 22 25
9 9 7 6 6 5 5 3 2 1 2 4 7 6 11 12 12 10 8 7 7 5 5 5 4 3 3 4 5 3 3 3 9 6 8 8 7 8 10 12 10 13 15
8 7 9 7 6 6 5 4 4 3 5 4 4 5 6 6 6 5 5 6 7 6 6 4 4 4 3 5 5 3 5 6 4 7 5 9 10 11 12 10 10 16 18
8 8 6 7 7 8 3 2 1 4 3 3 3 5 4 3 2 3 3 2 3 4 5 6 6 5 4 4 5 6 7 6 8 7 9 8 10 10 10 11 11 12 17
8 7 7 9 6 7 6 5 3 4 3 4 4 5 4 3 2 2 3 3 3 3 4 5 5 5 5 5 5 6 6 5 7 7 10 11 12 12 12 11 12 11 17
Wind_Direction
164 149 144 154 160 161 122 113 117 119 122 122 123 127 132 134 132 132 131 130 122 116 105 99 95 99 105 107 108 109 115 122 123 123 120 118 116 113 113 107 125 113 107
143 149 142 147 159 149 121 116 117 119 119 122 126 129 130 134 137 136 137 136 130 123 118 109 107 108 110 114 119 121 124 128 131 127 122 119 120 121 118 112 116 115 110
142 142 144 148 158 144 128 127 120 113 115 120 124 128 131 138 141 140 141 136 132 137 139 130 125 124 125 127 127 129 130 135 133 128 133 124 121 123 122 119 117 115 114
147 142 151 151 154 138 130 128 126 121 123 126 129 133 139 145 147 146 145 148 147 147 138 131 134 133 135 135 134 134 134 133 133 131 135 127 127 132 134 132 132 129 124
151 147 151 149 143 143 133 128 124 123 127 132 133 138 145 148 147 150 157 159 157 154 153 151 146 139 145 147 149 148 142 144 138 157 136 139 137 141 145 143 144 142 148
141 139 135 134 132 129 128 130 126 126 129 132 136 142 146 152 156 163 167 168 166 162 162 159 150 148 153 158 162 158 153 148 155 150 145 143 155 150 159 156 150 150 148
119 126 136 140 132 130 127 127 120 119 122 127 137 146 156 164 169 172 175 175 175 175 176 174 162 159 163 172 176 173 166 155 164 165 165 168 168 173 173 168 165 159 163
129 134 147 149 141 139 134 127 122 124 127 132 141 155 164 173 180 185 189 190 189 187 192 199 197 180 175 184 191 192 193 190 198 199 195 188 176 185 186 183 180 170 168
128 134 144 144 141 137 129 125 123 125 130 139 155 166 177 189 199 204 216 220 218 211 208 210 222 224 206 195 209 212 218 219 241 233 210 204 187 189 193 190 195 183 175
137 140 147 151 153 150 146 147 149 148 148 157 159 163 175 198 238 253 258 251 258 247 233 233 233 237 245 226 216 229 229 233 243 244 224 218 197 197 198 196 201 198 188
108 124 153 153 150 146 146 143 136 139 141 141 147 151 145 140 133 286 296 291 286 278 266 249 245 246 249 257 245 228 232 237 242 242 235 215 208 207 207 197 201 206 198
101 88 91 85 100 130 137 145 147 143 144 144 149 149 149 170 173 178 224 248 261 275 281 274 261 255 255 255 256 242 235 235 239 244 243 226 216 214 213 208 206 209 209
34 51 52 88 94 98 112 118 111 117 103 87 104 146 148 154 213 146 180 221 227 255 259 265 257 246 241 238 241 244 246 242 241 241 243 229 224 220 221 212 206 211 212
73 51 38 48 63 63 70 69 61 65 60 58 50 52 88 86 93 71 70 50 21 348 267 256 247 251 242 240 240 246 246 250 246 241 241 224 226 221 225 222 211 208 215
90 77 62 61 66 73 79 79 74 65 54 48 51 49 55 62 60 69 64 46 36 26 19 346 291 251 246 237 229 229 234 243 252 248 241 233 226 224 227 229 224 210 213
89 77 76 76 76 84 87 82 77 76 72 63 57 52 49 48 46 46 41 34 27 10 10 350 336 316 302 253 243 227 232 239 240 236 243 242 233 229 230 230 232 224 212
106 99 83 76 73 80 83 82 81 81 73 68 68 58 53 47 44 42 33 21 8 354 353 350 331 326 318 354 311 247 226 231 231 229 232 243 243 231 231 231 232 233 223
119 106 99 98 91 83 82 78 78 75 75 67 57 55 50 43 38 39 33 23 0 347 347 343 336 318 306 309 316 305 327 311 250 228 227 232 243 246 235 233 232 232 228
122 116 107 103 93 86 79 80 79 75 68 62 55 44 32 31 28 26 27 13 358 352 352 341 334 330 307 301 297 293 285 269 275 256 244 234 235 238 244 239 232 234 232
106 102 107 99 93 90 91 91 80 75 68 46 34 28 21 16 13 10 6 7 358 344 341 336 320 316 297 299 301 292 286 280 271 262 246 240 231 234 232 240 244 239 235
103 108 107 102 76 71 62 50 83 53 50 41 23 16 10 4 0 357 352 354 354 330 324 319 311 305 309 309 300 291 279 272 268 278 351 331 319 285 249 236 230 241 241
125 116 108 93 78 69 74 64 14 71 80 42 7 14 11 6 3 358 348 341 346 328 320 321 315 301 291 330 303 294 304 289 150 328 320 296 321 311 323 358 293 248 237
155 151 143 128 108 79 76 87 22 356 62 9 9 4 360 360 358 355 350 337 334 330 318 319 328 330 306 298 309 297 305 288 330 307 319 307 302 299 299 299 275 292 305
184 165 141 120 99 68 31 49 65 38 30 6 327 336 336 334 337 340 343 343 342 336 333 327 309 323 308 289 302 247 279 285 285 295 280 297 290 292 289 285 281 288 291
176 173 159 120 132 111 93 352 28 60 33 308 298 297 304 304 293 325 331 6 6 342 336 332 327 333 313 293 297 304 308 298 270 269 292 292 299 292 286 286 285 282 281
185 164 159 177 153 159 166 170 68 26 351 327 314 281 283 296 292 357 356 13 18 355 346 338 333 322 313 298 292 284 284 283 288 287 289 286 287 292 297 289 280 279 280